OBJECT BA, 43806

Orbit data source: Space-Track

You're viewing an Uncataloged Satellite

Recently launched and/or uncataloged satellites may have evolving metadata. Metadata may include but not limited to: Owner, Maufacturer, Bus, Motor, and Mission.

OBJECT BA, 43806 is a satellite in SSO that was launched on Mon, 03 Dec 2018 UTC via an FALCON 9 launch vehicle from the Air Force Western Test Range (AFWTR). Unknown objects in Earth's orbit typically refer to objects detected orbiting the Earth but have not yet been identified or cataloged. These objects could be anything from previously untracked satellites, spent rocket stages, debris from satellite collisions, or even natural meteoroids temporarily captured by Earth's gravity.

Loading next visibility...
Identifier
43806, 2018-099BA
Orbit
SSO
Country
Flag of TBDTBD
Related business
None
Manufacturer
Unknown
Mission
Non-operational Amateur Technology
Bus & Motor
Unknown
Mass
Unknown
Launch date (UTC)
2018-12-03 (7 years ago)
Launch vehicle
FALCON 9
Launch site
Air Force Western Test Range (AFWTR)
Object type
Unknown
Shape & HBR
Box, 0.1 m
Radar Cross Section
0.015 m², Small (<0.1 m²)

Expand to show TLE details & history
Last TLE update: 7 hours ago

TLE from 7 hours ago
0 OBJECT BA
1 43806U 18099BA  26125.05810520  .00005102  00000-0  27341-3 0  9993
2 43806  97.4020 173.5683 0009002 114.7469 245.4701 15.15398003405907
Epoch: 2026-05-05T01:23Z
TLE epoch observation values (Epoch: 2026-05-05T01:23:40.289Z)
Latitude
-0.00005°
Longitude
-70.28797°
Altitude
525.438 km
Speed
7.599 km/s
True Right ascension
11h 34m 16s
True Declination
0° 00' 00"
Sunlit
Object was in full shadow at epoch
Visualization orbit readout
Latitude
Unknown
Longitude
Unknown
Altitude
Unknown
Speed
Unknown
Apparent Right ascension
Unknown
Apparent Declination
Unknown
Sunlit
N/A
Visualization observer readout
Local Sidereal Time
16:38:00
Azimuth
Unknown
Elevation
Unknown
Doppler factor
Unknown
Orbital elements
Apogee altitude
522.949 km
Perigee altitude
510.536 km
Semi-major axis
6,894.879 km
Eccentricity
0.0009
Inclination
97.402°
RAAN
173.5683°
Arg. of periapsis
114.7469°
True anomaly
245.3763°
Mean anomaly
245.4701°
Eccentric anomaly
245.4232°
Mean motion
3.79099 °/min
Orbital period
94.96 mins
BSTAR
0.00027341
Loading maneuver chart data...
Computing Atmospheric mass density...
Loading historical data...
Loading historical data...
Loading historical data...
Loading historical data...
Loading historical data...
Loading historical data...
Loading historical data...

Documentation

Showing up to 5 results
|